Powrót do katalogu

SARI-1

AktywnyNaukaSSO
NORAD 66668·PAYLOAD·🇬🇷 Greece

Wystrzelony Nov 28, 2025 z Vandenberg Space Force Base

Loading…

Następne Przeloty (najbliższe 24 godziny)

TLE

ŚwieżeSource: Space-Track

Epoka: Sep 13, 2026, 16:39 UTC

1 66668U 25276C   26256.69387315  .00025963  00000-0  82412-3 0  9992
2 66668  97.3976 330.5895 0006358  62.2140 297.9746 15.32630230 44024

Śledź SARI-1 w czasie rzeczywistym z AllMySat

Download on the App Store